Weather reports worldwide

Advertisment
Santon Downham, United Kingdom (99118): temperature & dewpoint: 17.04.2018 14:00:00 - 23.04.2018 14:00:00 (BST)Santon Downham, United Kingdom (99118): temperature -20cm & temperature -100cm: 17.04.2018 14:00:00 - 23.04.2018 14:00:00 (BST)Santon Downham, United Kingdom (99118): precipitation: 17.04.2018 14:00:00 - 23.04.2018 14:00:00 (BST)
Date & Time tt [°C] td [°C] tt -20cm [°C] tt -100cm [°C] rr [mm]
23.04.2018 14:00:00 15,2 5,5 - - 0,0
23.04.2018 13:00:00 14,4 6,3 - - 0,0
23.04.2018 12:00:00 13,4 5,1 - - 0,0
23.04.2018 11:00:00 12,6 5,5 - - 0,0
23.04.2018 10:00:00 12,9 6,8 12,7 10,7 0,0
23.04.2018 09:00:00 12,0 7,2 - - 0,0
23.04.2018 08:00:00 10,2 7,2 - - 0,0
23.04.2018 07:00:00 8,0 6,7 - - 0,0
23.04.2018 06:00:00 7,0 5,9 - - 0,0
23.04.2018 05:00:00 7,5 6,2 - - 0,0
23.04.2018 04:00:00 8,3 6,7 - - 0,0
23.04.2018 03:00:00 8,9 7,3 - - 0,0
23.04.2018 02:00:00 10,0 8,0 - - 0,0
23.04.2018 01:00:00 11,2 8,4 - - 0,0
23.04.2018 00:00:00 11,6 8,4 - - 0,0
22.04.2018 23:00:00 12,6 8,7 - - 0,0
22.04.2018 22:00:00 14,0 9,1 - - 0,0
22.04.2018 21:00:00 15,3 8,7 - - 0,0
22.04.2018 20:00:00 17,2 9,5 - - 0,0
22.04.2018 19:00:00 18,1 7,9 - - 0,0
22.04.2018 18:00:00 18,4 13,5 - - 1,0
22.04.2018 17:00:00 21,8 11,4 - - 0,0
22.04.2018 16:00:00 23,7 10,6 - - 0,0
22.04.2018 15:00:00 23,6 9,1 - - 0,0
22.04.2018 14:00:00 23,6 11,7 - - 0,0
22.04.2018 13:00:00 23,2 12,4 - - 0,0
22.04.2018 12:00:00 23,0 13,7 - - 0,0
22.04.2018 11:00:00 22,0 13,3 - - 0,0
22.04.2018 10:00:00 19,9 12,4 12,5 10,4 0,0
22.04.2018 09:00:00 17,9 12,3 - - 0,0
22.04.2018 08:00:00 14,9 11,9 - - 0,0
22.04.2018 07:00:00 11,9 11,5 - - 0,0
22.04.2018 06:00:00 11,7 10,9 - - 0,0
22.04.2018 05:00:00 11,9 10,9 - - 0,0
22.04.2018 04:00:00 11,9 11,3 - - 0,0
22.04.2018 03:00:00 12,2 11,3 - - 0,2
22.04.2018 02:00:00 12,8 10,9 - - 0,0
22.04.2018 01:00:00 13,1 10,2 - - 0,0
22.04.2018 00:00:00 13,9 9,6 - - 0,0
21.04.2018 23:00:00 13,2 9,9 - - 0,0
21.04.2018 22:00:00 13,6 9,9 - - 0,0
21.04.2018 21:00:00 15,0 9,6 - - 0,0
21.04.2018 20:00:00 16,3 9,9 - - 0,2
21.04.2018 19:00:00 16,7 10,4 - - 0,0
21.04.2018 18:00:00 19,3 10,2 - - 0,0
21.04.2018 17:00:00 21,0 10,7 - - 0,0
21.04.2018 16:00:00 21,4 8,4 - - 0,0
21.04.2018 15:00:00 20,7 9,2 - - 0,0
21.04.2018 14:00:00 19,9 8,4 - - 0,0
21.04.2018 13:00:00 18,9 9,7 - - 0,0
21.04.2018 12:00:00 18,2 10,0 - - 0,0
21.04.2018 11:00:00 17,0 9,8 - - 0,0
21.04.2018 10:00:00 15,0 9,5 12,2 10,2 0,0
21.04.2018 09:00:00 13,1 9,9 - - 0,0
21.04.2018 08:00:00 10,1 10,1 - - 0,0
21.04.2018 07:00:00 8,5 8,5 - - 0,0
21.04.2018 06:00:00 7,5 7,5 - - 0,0
21.04.2018 05:00:00 6,7 6,6 - - 0,0
21.04.2018 04:00:00 6,6 6,4 - - 0,0
21.04.2018 03:00:00 7,6 7,4 - - 0,0
21.04.2018 02:00:00 8,0 7,7 - - 0,0
21.04.2018 01:00:00 8,8 8,2 - - 0,0
21.04.2018 00:00:00 10,2 9,6 - - 0,0
20.04.2018 23:00:00 11,4 10,4 - - 0,0
20.04.2018 22:00:00 12,8 11,2 - - 0,0
20.04.2018 21:00:00 14,7 11,9 - - 0,0
20.04.2018 20:00:00 18,1 12,6 - - 0,0
20.04.2018 19:00:00 20,1 12,7 - - 0,0
20.04.2018 18:00:00 21,5 12,9 - - 0,0
20.04.2018 17:00:00 22,5 13,2 - - 0,0
20.04.2018 16:00:00 23,5 13,4 - - 0,0
20.04.2018 15:00:00 23,0 13,0 - - 0,0
20.04.2018 14:00:00 22,5 13,7 - - 0,0
20.04.2018 13:00:00 22,4 13,3 - - 0,0
20.04.2018 12:00:00 20,7 12,7 - - 0,0
20.04.2018 11:00:00 19,2 12,8 - - 0,0
20.04.2018 10:00:00 17,6 12,6 11,7 9,9 0,0
20.04.2018 09:00:00 14,8 11,6 - - 0,0
20.04.2018 08:00:00 12,2 11,7 - - 0,0
20.04.2018 07:00:00 7,3 7,3 - - 0,0
20.04.2018 06:00:00 6,7 6,5 - - 0,0
20.04.2018 05:00:00 7,0 6,7 - - 0,0
20.04.2018 04:00:00 7,8 7,5 - - 0,0
20.04.2018 03:00:00 8,1 7,5 - - 0,0
20.04.2018 02:00:00 8,8 8,1 - - 0,0
20.04.2018 01:00:00 9,2 8,2 - - 0,0
20.04.2018 00:00:00 10,3 8,8 - - 0,0
19.04.2018 23:00:00 11,5 9,3 - - 0,0
19.04.2018 22:00:00 13,2 9,6 - - 0,0
19.04.2018 21:00:00 15,5 9,9 - - 0,0
19.04.2018 20:00:00 20,1 9,5 - - 0,0
19.04.2018 19:00:00 23,5 9,1 - - 0,0
19.04.2018 18:00:00 25,7 10,7 - - 0,0
19.04.2018 17:00:00 27,8 7,1 - - 0,0
19.04.2018 16:00:00 27,4 7,5 - - 0,0
19.04.2018 15:00:00 27,9 9,2 - - 0,0
19.04.2018 14:00:00 26,5 8,3 - - 0,0
19.04.2018 13:00:00 26,1 9,4 - - 0,0
19.04.2018 12:00:00 25,5 11,1 - - 0,0
19.04.2018 11:00:00 24,0 11,5 - - 0,0
19.04.2018 10:00:00 22,2 11,5 11,2 9,7 0,0
19.04.2018 09:00:00 19,1 12,4 - - 0,0
19.04.2018 08:00:00 - - - - 0,0
19.04.2018 07:00:00 - - - - -
19.04.2018 06:00:00 - - - - -
19.04.2018 05:00:00 - - - - -
19.04.2018 04:00:00 - - - - -
19.04.2018 03:00:00 - - - - -
19.04.2018 02:00:00 10,9 8,3 - - 0,0
19.04.2018 01:00:00 11,6 8,5 - - 0,0
19.04.2018 00:00:00 12,9 8,7 - - 0,0
18.04.2018 23:00:00 13,1 9,1 - - 0,0
18.04.2018 22:00:00 14,0 9,3 - - 0,0
18.04.2018 21:00:00 15,3 9,3 - - 0,0
18.04.2018 20:00:00 17,7 9,7 - - 0,0
18.04.2018 19:00:00 19,8 10,8 - - 0,0
18.04.2018 18:00:00 21,3 9,7 - - 0,0
18.04.2018 17:00:00 22,7 8,1 - - 0,0
18.04.2018 16:00:00 23,2 11,2 - - 0,0
18.04.2018 15:00:00 23,6 12,9 - - 0,0
18.04.2018 14:00:00 22,3 12,1 - - 0,0
18.04.2018 13:00:00 21,8 12,3 - - 0,0
18.04.2018 12:00:00 21,4 12,7 - - 0,0
18.04.2018 11:00:00 19,7 12,3 - - 0,0
18.04.2018 10:00:00 17,3 11,5 10,7 9,4 0,0
18.04.2018 09:00:00 15,5 11,0 - - 0,0
18.04.2018 08:00:00 13,1 11,7 - - 0,0
18.04.2018 07:00:00 7,6 7,4 - - 0,0
18.04.2018 06:00:00 7,0 6,4 - - 0,0
18.04.2018 05:00:00 8,3 7,3 - - 0,0
18.04.2018 04:00:00 10,7 8,7 - - 0,0
18.04.2018 03:00:00 12,9 9,7 - - 0,0
18.04.2018 02:00:00 13,2 9,8 - - 0,0
18.04.2018 01:00:00 12,5 9,7 - - 0,0
18.04.2018 00:00:00 12,9 9,1 - - 0,0
17.04.2018 23:00:00 14,8 9,6 - - 0,0
17.04.2018 22:00:00 15,8 9,8 - - 0,0
17.04.2018 21:00:00 16,0 9,7 - - 0,0
17.04.2018 20:00:00 16,8 9,7 - - 0,0
17.04.2018 19:00:00 17,5 9,6 - - 0,0
17.04.2018 18:00:00 18,2 9,3 - - 0,0
17.04.2018 17:00:00 19,1 8,9 - - 0,0
17.04.2018 16:00:00 19,7 8,3 - - 0,0
17.04.2018 15:00:00 20,0 8,0 - - 0,0
17.04.2018 14:00:00 18,8 5,5 - - 0,0

tt = temperature
td = dewpoint
tt -20cm = temperature -20cm
tt -100cm = temperature -100cm
rr = precipitation

Next stations